Voltar ao catálogo

STARLINK-34188

AtivoComunicaçõesVLEO
NORAD 64183·PAYLOAD·🇺🇸 United States

Lançado May 28, 2025 de Cape Canaveral Space Force Station

Loading…

Próximas Passagens (próximas 24 horas)

TLE

AtualizadoSource: CelesTrak SupGP

Época: Sep 14, 2026, 22:29 UTC

1 64183C 25113P   26257.93729167  .00046405  00000+0  14927-2 0  2570
2 64183  53.1586 290.7126 0001198  82.4618 122.1357 15.31668882    17

Acompanhe STARLINK-34188 em tempo real com AllMySat

Download on the App Store